When you browse on this site, cookies collect data to enhance your experience and personalize the content and advertising you see.
Visit our Privacy Policy to learn more. By continuing to use the site, you agree to this use of cookies and data.
  • In Hungary
  • List of Countries
  • For 7 days
  • Water Temperature
  • Satellite Maps
  • Weather Map
  • News
  • Weather Widgets
  • user-avatar
    Login

    Hourly Weather Kartalkaya

    Today, 21 February, Thursday

    Time Temperature Precipitation Wind Pressure Humidity
    00:00 +5°C° 0 mm 1 mps 697 mmHg 68%
    01:00 +5°C° 0 mm 1 mps 697 mmHg 68%
    02:00 +4°C° 0 mm 1 mps 697 mmHg 68%
    03:00 +4°C° 0 mm 1 mps 697 mmHg 68%
    04:00 +4°C° 0 mm 1 mps 697 mmHg 67%
    05:00 +4°C° 0 mm 1 mps 698 mmHg 67%
    06:00 +4°C° 0 mm 1 mps 698 mmHg 67%
    07:00 +5°C° 0 mm 1 mps 698 mmHg 66%
    08:00 +6°C° 0 mm 1 mps 699 mmHg 66%
    09:00 +7°C° 0 mm 1 mps 699 mmHg 65%
    10:00 +7°C° 0 mm 2 mps 700 mmHg 63%
    11:00 +9°C° 0 mm 2 mps 700 mmHg 62%
    12:00 +9°C° 0.2 mm 2 mps 700 mmHg 63%
    13:00 +9°C° 0.2 mm 3 mps 700 mmHg 64%
    14:00 +9°C° 0.2 mm 3 mps 700 mmHg 64%
    15:00 +8°C° 0.2 mm 2 mps 700 mmHg 71%
    16:00 +7°C° 0.2 mm 2 mps 700 mmHg 77%
    17:00 +6°C° 0.2 mm 2 mps 700 mmHg 84%
    18:00 +5°C° 0.1 mm 2 mps 700 mmHg 87%
    19:00 +6°C° 0.1 mm 1 mps 700 mmHg 89%
    20:00 +5°C° 0.1 mm 1 mps 701 mmHg 92%
    21:00 +5°C° 0 mm 1 mps 701 mmHg 93%
    22:00 +4°C° 0 mm 1 mps 701 mmHg 94%
    23:00 +4°C° 0 mm 1 mps 701 mmHg 94%

    Tomorrow, 22 February, Friday

    Time Temperature Precipitation Wind Pressure Humidity
    00:00 +3°C° 0 mm 1 mps 700 mmHg 94%
    01:00 +2°C° 0 mm 0 mps 700 mmHg 93%
    02:00 +2°C° 0 mm 0 mps 700 mmHg 92%
    03:00 +1°C° 0 mm 0 mps 700 mmHg 90%
    04:00 +1°C° 0 mm 0 mps 699 mmHg 89%
    05:00 +2°C° 0 mm 1 mps 699 mmHg 88%
    06:00 +3°C° 0 mm 1 mps 699 mmHg 82%
    07:00 +3°C° 0 mm 1 mps 699 mmHg 76%
    08:00 +4°C° 0 mm 1 mps 699 mmHg 70%
    09:00 +6°C° 0 mm 1 mps 699 mmHg 63%
    10:00 +7°C° 0 mm 1 mps 698 mmHg 55%
    11:00 +8°C° 0 mm 2 mps 698 mmHg 48%
    12:00 +9°C° 0 mm 2 mps 697 mmHg 49%
    13:00 +9°C° 0 mm 2 mps 697 mmHg 49%
    14:00 +9°C° 0 mm 2 mps 696 mmHg 49%
    15:00 +9°C° 0 mm 2 mps 695 mmHg 55%
    16:00 +8°C° 0 mm 2 mps 695 mmHg 61%
    17:00 +8°C° 0 mm 1 mps 694 mmHg 66%
    18:00 +7°C° 0 mm 1 mps 694 mmHg 71%
    19:00 +6°C° 0 mm 1 mps 694 mmHg 76%
    20:00 +4°C° 0 mm 0 mps 694 mmHg 81%
    21:00 +4°C° 0 mm 0 mps 694 mmHg 81%
    22:00 +5°C° 0 mm 1 mps 694 mmHg 82%
    23:00 +5°C° 0 mm 1 mps 694 mmHg 82%

    Day after tomorrow, 23 February, Saturday

    Time Temperature Precipitation Wind Pressure Humidity
    00:00 +5°C° 0 mm 1 mps 693 mmHg 83%
    01:00 +4°C° 0 mm 1 mps 693 mmHg 84%
    02:00 +4°C° 0 mm 1 mps 693 mmHg 85%
    03:00 +4°C° 0 mm 1 mps 693 mmHg 84%
    04:00 +4°C° 0 mm 1 mps 693 mmHg 84%
    05:00 +4°C° 0 mm 1 mps 693 mmHg 84%
    06:00 +4°C° 0.4 mm 1 mps 693 mmHg 86%
    07:00 +4°C° 0.4 mm 1 mps 694 mmHg 88%
    08:00 +4°C° 0.4 mm 1 mps 695 mmHg 90%
    09:00 +2°C° 0.8 mm 2 mps 695 mmHg 91%
    10:00 +2°C° 0.8 mm 2 mps 695 mmHg 92%
    11:00 +2°C° 0.8 mm 2 mps 696 mmHg 92%
    12:00 +1°C° 0.5 mm 2 mps 696 mmHg 92%
    13:00 +1°C° 0.5 mm 2 mps 696 mmHg 91%
    14:00 +1°C° 0.5 mm 2 mps 696 mmHg 91%
    15:00 -1°C° 0.2 mm 2 mps 696 mmHg 90%
    16:00 -1°C° 0.2 mm 2 mps 696 mmHg 90%
    17:00 -2°C° 0.2 mm 2 mps 696 mmHg 90%
    18:00 -2°C° 0.2 mm 2 mps 697 mmHg 91%
    19:00 -2°C° 0.2 mm 2 mps 697 mmHg 92%
    20:00 -3°C° 0.2 mm 2 mps 697 mmHg 93%
    21:00 -3°C° 0.4 mm 2 mps 698 mmHg 93%
    22:00 -3°C° 0.4 mm 2 mps 698 mmHg 93%
    23:00 -3°C° 0.4 mm 2 mps 698 mmHg 94%

    24 February, Sunday

    Time Temperature Precipitation Wind Pressure Humidity
    00:00 -3°C° 0.4 mm 2 mps 698 mmHg 94%
    01:00 -4°C° 0.4 mm 2 mps 698 mmHg 94%
    02:00 -4°C° 0.4 mm 2 mps 698 mmHg 94%
    03:00 -4°C° 1 mm 2 mps 698 mmHg 95%
    04:00 -4°C° 1 mm 2 mps 698 mmHg 95%
    05:00 -4°C° 1 mm 2 mps 698 mmHg 95%
    06:00 -4°C° 0.7 mm 2 mps 698 mmHg 94%
    07:00 -4°C° 0.7 mm 2 mps 699 mmHg 94%
    08:00 -4°C° 0.7 mm 2 mps 699 mmHg 93%
    09:00 -3°C° 0.3 mm 2 mps 700 mmHg 92%
    10:00 -2°C° 0.3 mm 2 mps 700 mmHg 90%
    11:00 -2°C° 0.3 mm 2 mps 700 mmHg 89%
    12:00 -1°C° 0.3 mm 2 mps 700 mmHg 89%
    13:00 -1°C° 0.3 mm 2 mps 700 mmHg 90%
    14:00 -1°C° 0.3 mm 2 mps 700 mmHg 90%
    15:00 -2°C° 0.2 mm 2 mps 700 mmHg 91%
    16:00 -2°C° 0.2 mm 2 mps 700 mmHg 92%
    17:00 -2°C° 0.2 mm 2 mps 700 mmHg 92%
    18:00 -3°C° 0.1 mm 2 mps 701 mmHg 93%
    19:00 -3°C° 0.1 mm 2 mps 701 mmHg 95%
    20:00 -2°C° 0.1 mm 1 mps 701 mmHg 96%
    21:00 -2°C° 0.1 mm 1 mps 701 mmHg 96%
    22:00 -2°C° 0.1 mm 1 mps 701 mmHg 95%
    23:00 -2°C° 0.1 mm 1 mps 701 mmHg 95%

    25 February, Monday

    Time Temperature Precipitation Wind Pressure Humidity
    00:00 -2°C° 0.1 mm 1 mps 701 mmHg 95%
    01:00 -2°C° 0.1 mm 1 mps 700 mmHg 95%
    02:00 -2°C° 0.1 mm 1 mps 700 mmHg 95%
    03:00 -2°C° 0.1 mm 1 mps 700 mmHg 95%
    04:00 -2°C° 0.1 mm 1 mps 699 mmHg 95%
    05:00 -2°C° 0.1 mm 1 mps 699 mmHg 95%
    06:00 -2°C° 0 mm 1 mps 698 mmHg 94%
    07:00 -2°C° 0 mm 1 mps 698 mmHg 93%
    08:00 -1°C° 0 mm 1 mps 698 mmHg 92%
    09:00 0°C° 0.1 mm 1 mps 697 mmHg 91%
    10:00 -2°C° 0.1 mm 2 mps 697 mmHg 90%
    11:00 -1°C° 0.1 mm 2 mps 697 mmHg 88%
    12:00 -1°C° 0.1 mm 2 mps 696 mmHg 89%
    13:00 -1°C° 0.1 mm 2 mps 695 mmHg 90%
    14:00 +1°C° 0.1 mm 2 mps 694 mmHg 90%
    15:00 -1°C° 0.2 mm 2 mps 694 mmHg 91%
    16:00 -2°C° 0.2 mm 2 mps 693 mmHg 92%
    17:00 -2°C° 0.2 mm 2 mps 693 mmHg 93%
    18:00 -3°C° 0.1 mm 2 mps 693 mmHg 94%
    19:00 -3°C° 0.1 mm 2 mps 693 mmHg 95%
    20:00 -4°C° 0.1 mm 2 mps 692 mmHg 96%
    21:00 -4°C° 0 mm 2 mps 692 mmHg 96%
    22:00 -3°C° 0 mm 1 mps 692 mmHg 96%
    23:00 -3°C° 0 mm 1 mps 692 mmHg 95%

    26 February, Tuesday

    Time Temperature Precipitation Wind Pressure Humidity
    00:00 -4°C° 0 mm 1 mps 691 mmHg 95%
    01:00 -4°C° 0 mm 1 mps 691 mmHg 95%
    02:00 -6°C° 0 mm 1 mps 691 mmHg 95%
    03:00 -7°C° 0 mm 1 mps 691 mmHg 93%
    04:00 -7°C° 0 mm 1 mps 690 mmHg 91%
    05:00 -8°C° 0 mm 1 mps 690 mmHg 90%
    06:00 -7°C° 0 mm 1 mps 691 mmHg 85%
    07:00 -6°C° 0 mm 1 mps 691 mmHg 80%
    08:00 -3°C° 0 mm 1 mps 691 mmHg 75%
    09:00 -2°C° 0 mm 1 mps 692 mmHg 72%
    10:00 0°C° 0 mm 1 mps 692 mmHg 69%
    11:00 +2°C° 0 mm 1 mps 692 mmHg 66%
    12:00 +1°C° 0 mm 2 mps 692 mmHg 70%
    13:00 +1°C° 0 mm 2 mps 692 mmHg 73%
    14:00 +1°C° 0 mm 2 mps 692 mmHg 77%
    15:00 +1°C° 0 mm 2 mps 692 mmHg 81%
    16:00 -1°C° 0 mm 2 mps 692 mmHg 85%
    17:00 -1°C° 0 mm 2 mps 692 mmHg 89%
    18:00 -2°C° 0 mm 2 mps 693 mmHg 91%
    19:00 -3°C° 0 mm 2 mps 693 mmHg 93%
    20:00 -1°C° 0 mm 1 mps 693 mmHg 96%
    21:00 -1°C° 0 mm 1 mps 694 mmHg 95%
    22:00 -2°C° 0 mm 1 mps 694 mmHg 95%
    23:00 -2°C° 0 mm 1 mps 694 mmHg 95%
    Show more